This is the latest recevied weather packets stored in our database for station/object SV9TNF-51. If no packets are shown the sender has not sent any weather packets the latest 10 day(s).
| Time | Temp. | Humidity | Pressure | Rain* | Wind** | Luminosity | Snow |
|---|---|---|---|---|---|---|---|
| 1788497673 | 25.56° C | 62% | 1011.2 hPa | 0 mm | 1.79 m/s, 126° | - | - |
| 1788497374 | 25° C | 61% | 1011.2 hPa | 0 mm | 0.89 m/s, 145° | - | - |
| 1788497073 | 25° C | 61% | 1011.2 hPa | 0 mm | 1.34 m/s, 140° | - | - |
| 1788496773 | 25° C | 61% | 1011.2 hPa | 0 mm | 1.79 m/s, 138° | - | - |
| 1788496473 | 24.44° C | 59% | 1010.8 hPa | 0 mm | 1.34 m/s, 138° | - | - |
| 1788496173 | 24.44° C | 59% | 1010.8 hPa | 0 mm | 1.79 m/s, 125° | - | - |
| 1788495873 | 24.44° C | 59% | 1010.8 hPa | 0 mm | 0 m/s | - | - |
| 1788495572 | 23.89° C | 60% | 1010.8 hPa | 0 mm | 0.45 m/s, 124° | - | - |
| 1788495273 | 23.33° C | 60% | 1010.8 hPa | 0 mm | 1.79 m/s, 84° | - | - |
| 1788494973 | 23.89° C | 61% | 1010.5 hPa | 0 mm | 2.24 m/s, 317° | - | - |
| 1788494672 | 24.44° C | 66% | 1010.5 hPa | 0 mm | 1.79 m/s, 77° | - | - |
| 1788494373 | 24.44° C | 65% | 1010.5 hPa | 0 mm | 0.45 m/s, 137° | - | - |
| 1788494072 | 24.44° C | 64% | 1010.5 hPa | 0 mm | 0 m/s | - | - |
| 1788493772 | 24.44° C | 63% | 1010.5 hPa | 0 mm | 0.89 m/s, 125° | - | - |
| 1788493473 | 24.44° C | 63% | 1010.5 hPa | 0 mm | 1.79 m/s, 110° | - | - |
| 1788493172 | 25° C | 60% | 1010.5 hPa | 0 mm | 0.89 m/s, 127° | - | - |
| 1788492871 | 25° C | 57% | 1009.8 hPa | 0 mm | 2.24 m/s, 105° | - | - |
| 1788492572 | 25° C | 57% | 1009.8 hPa | 0 mm | 1.79 m/s, 124° | - | - |
| 1788492271 | 24.44° C | 57% | 1009.8 hPa | 0 mm | 1.34 m/s, 105° | - | - |
| 1788491971 | 24.44° C | 57% | 1009.8 hPa | 0 mm | 1.34 m/s, 138° | - | - |
| 1788491671 | 24.44° C | 56% | 1009.8 hPa | 0 mm | 1.34 m/s, 134° | - | - |
| 1788491371 | 25° C | 57% | 1009.8 hPa | 0 mm | 0.89 m/s, 138° | - | - |
| 1788491071 | 25° C | 57% | 1009.8 hPa | 0 mm | 0 m/s | - | - |
| 1788490771 | 25° C | 56% | 1009.8 hPa | 0 mm | 2.24 m/s, 93° | - | - |
| 1788490471 | 24.44° C | 57% | 1009.8 hPa | 0 mm | 1.79 m/s, 103° | - | - |
* Rain latest hour (hover to see other rain measurements)
** Current wind speed in m/s (hover to see current wind gust speed)